{"data":{"norad_id":59501,"epoch":"2026-05-25T00:53:40.994592Z","epoch_age_seconds":65056,"freshness":"FRESH","line1":"1 59501U 24071T   26145.03728003  .00000098  00000+0  13091-4 0  9999","line2":"2 59501  43.0002 268.4277 0001050 271.3141  88.7590 15.27577514119880","mean_motion":15.27577514,"eccentricity":0.000105,"inclination_deg":43.0002,"raan_deg":268.4277,"arg_perigee_deg":271.3141,"mean_anomaly_deg":88.759,"bstar":1.3091e-5,"rev_number":11988,"period_min":94.266902124615,"perigee_km":482.33611470638,"apogee_km":483.77696534979,"semimajor_km":6861.1935400281,"source":"CELESTRAK","updated_at":"2026-05-25T13:38:18.972194Z"}}